This is the latest recevied weather packets stored in our database for station/object N8QF. If no packets are shown the sender has not sent any weather packets the latest 10 day(s).
| Time | Temp. | Humidity | Pressure | Rain* | Wind** | Luminosity | Snow |
|---|---|---|---|---|---|---|---|
| 1777761018 | 10.56° C | 46% | 1016.1 hPa | 0 mm | - | - | - |
| 1777760716 | 10° C | 46% | 1016.1 hPa | 0 mm | - | - | - |
| 1777760415 | 10.56° C | 47% | 1016.2 hPa | 0 mm | - | - | - |
| 1777760115 | 10° C | 49% | 1016.1 hPa | 0 mm | - | - | - |
| 1777759815 | 10° C | 47% | 1016.1 hPa | 0 mm | - | - | - |
| 1777759515 | 10° C | 44% | 1016 hPa | 0 mm | - | - | - |
| 1777759215 | 10.56° C | 47% | 1016 hPa | 0 mm | - | - | - |
| 1777758914 | 10.56° C | 47% | 1016 hPa | 0 mm | - | - | - |
| 1777758614 | 11.11° C | 46% | 1016 hPa | 0 mm | - | - | - |
| 1777758314 | 11.11° C | 46% | 1016 hPa | 0 mm | - | - | - |
| 1777758014 | 10.56° C | 45% | 1016 hPa | 0 mm | - | - | - |
| 1777757713 | 10.56° C | 46% | 1015.9 hPa | 0 mm | - | - | - |
| 1777757411 | 11.11° C | 45% | 1015.9 hPa | 0 mm | - | - | - |
| 1777757113 | 10.56° C | 42% | 1015.9 hPa | 0 mm | - | - | - |
| 1777756811 | 11.11° C | 47% | 1015.8 hPa | 0 mm | - | - | - |
| 1777756511 | 11.11° C | 45% | 1015.8 hPa | 0 mm | - | - | - |
| 1777756209 | 11.11° C | 48% | 1015.8 hPa | 0 mm | - | - | - |
| 1777755909 | 10.56° C | 46% | 1015.8 hPa | 0 mm | - | - | - |
| 1777755609 | 10.56° C | 45% | 1015.8 hPa | 0 mm | - | - | - |
| 1777755309 | 11.67° C | 47% | 1015.8 hPa | 0 mm | - | - | - |
| 1777755008 | 11.11° C | 44% | 1015.8 hPa | 0 mm | - | - | - |
| 1777754708 | 11.11° C | 42% | 1015.8 hPa | 0 mm | - | - | - |
| 1777754408 | 11.11° C | 45% | 1015.8 hPa | 0 mm | - | - | - |
| 1777754108 | 11.67° C | 43% | 1015.9 hPa | 0 mm | - | - | - |
| 1777753807 | 11.67° C | 44% | 1015.9 hPa | 0 mm | - | - | - |
* Rain since midnight (hover to see other rain measurements)
** Current wind speed in m/s (hover to see current wind gust speed)